Time,TemperatureF,DewpointF,PressureIn,WindDirection,WindDirectionDegrees,WindSpeedMPH,WindSpeedGustMPH,Humidity,HourlyPrecipIn,Conditions,Clouds,dailyrainin,SoftwareType,DateUTC
2013-04-09 00:06:00,46.2,42.0,30.12,NNE,16,0.0,0.0,85,0.00,,,0.00,weatherlink.com 1.10,2013-04-09 07:06:00,
2013-04-09 00:21:00,45.9,42.0,30.12,NNE,19,0.0,3.0,87,0.00,,,0.00,weatherlink.com 1.10,2013-04-09 07:21:00,
2013-04-09 00:36:00,45.8,42.0,30.13,NNE,28,0.0,1.0,87,0.00,,,0.00,weatherlink.com 1.10,2013-04-09 07:36:00,
2013-04-09 00:51:00,45.5,42.0,30.13,NNE,28,0.0,0.0,87,0.00,,,0.00,weatherlink.com 1.10,2013-04-09 07:51:00,
2013-04-09 01:06:00,45.5,42.0,30.13,NNE,28,0.0,1.0,87,0.00,,,0.00,weatherlink.com 1.10,2013-04-09 08:06:00,
2013-04-09 01:21:00,45.3,42.0,30.14,NNE,27,0.0,1.0,88,0.00,,,0.00,weatherlink.com 1.10,2013-04-09 08:21:00,
2013-04-09 01:36:00,45.3,42.0,30.14,NNE,21,0.0,2.0,88,0.00,,,0.00,weatherlink.com 1.10,2013-04-09 08:36:00,
2013-04-09 01:51:00,45.5,42.0,30.14,NNE,22,0.0,1.0,88,0.00,,,0.00,weatherlink.com 1.10,2013-04-09 08:51:00,
2013-04-09 02:06:00,45.4,42.0,30.14,NNE,13,0.0,3.0,88,0.00,,,0.00,weatherlink.com 1.10,2013-04-09 09:06:00,
2013-04-09 02:22:00,45.8,42.0,30.14,NNE,28,0.0,2.0,86,0.00,,,0.00,weatherlink.com 1.10,2013-04-09 09:22:00,
2013-04-09 02:37:00,46.0,42.0,30.14,North,9,0.0,1.0,86,0.00,,,0.00,weatherlink.com 1.10,2013-04-09 09:37:00,
2013-04-09 02:52:00,45.9,42.0,30.13,NNE,17,0.0,2.0,86,0.00,,,0.00,weatherlink.com 1.10,2013-04-09 09:52:00,
2013-04-09 03:07:00,45.9,41.0,30.14,North,350,0.0,0.0,84,0.00,,,0.00,weatherlink.com 1.10,2013-04-09 10:07:00,
2013-04-09 03:22:00,46.2,42.0,30.13,North,5,0.0,1.0,84,0.00,,,0.00,weatherlink.com 1.10,2013-04-09 10:22:00,
2013-04-09 03:37:00,45.9,41.0,30.13,North,11,0.0,1.0,84,0.00,,,0.00,weatherlink.com 1.10,2013-04-09 10:37:00,
2013-04-09 03:52:00,45.7,41.0,30.13,North,355,0.0,2.0,84,0.00,,,0.00,weatherlink.com 1.10,2013-04-09 10:52:00,
2013-04-09 04:07:00,45.7,41.0,30.13,North,9,0.0,1.0,84,0.00,,,0.00,weatherlink.com 1.10,2013-04-09 11:07:00,
2013-04-09 04:22:00,45.8,41.0,30.13,North,11,0.0,1.0,84,0.00,,,0.00,weatherlink.com 1.10,2013-04-09 11:22:00,
2013-04-09 04:37:00,45.4,41.0,30.13,NNE,21,0.0,2.0,84,0.00,,,0.00,weatherlink.com 1.10,2013-04-09 11:37:00,
2013-04-09 04:52:00,45.5,41.0,30.14,NNE,21,0.0,0.0,84,0.00,,,0.00,weatherlink.com 1.10,2013-04-09 11:52:00,
2013-04-09 05:07:00,45.5,41.0,30.14,NNE,19,0.0,3.0,83,0.00,,,0.00,weatherlink.com 1.10,2013-04-09 12:07:00,
2013-04-09 05:22:00,45.3,41.0,30.14,NNE,20,0.0,1.0,84,0.00,,,0.00,weatherlink.com 1.10,2013-04-09 12:22:00,
2013-04-09 05:37:00,44.8,41.0,30.14,North,10,1.0,2.0,85,0.00,,,0.00,weatherlink.com 1.10,2013-04-09 12:37:00,
2013-04-09 05:52:00,44.3,40.0,30.14,North,11,0.0,0.0,85,0.00,,,0.00,weatherlink.com 1.10,2013-04-09 12:52:00,
2013-04-09 06:07:00,44.1,41.0,30.14,NNE,24,0.0,1.0,87,0.00,,,0.00,weatherlink.com 1.10,2013-04-09 13:07:00,
2013-04-09 06:22:00,44.0,40.0,30.15,NNE,32,0.0,1.0,87,0.00,,,0.00,weatherlink.com 1.10,2013-04-09 13:22:00,
2013-04-09 06:37:00,43.8,40.0,30.15,NNE,32,0.0,1.0,87,0.00,,,0.00,weatherlink.com 1.10,2013-04-09 13:37:00,
2013-04-09 06:52:00,43.2,40.0,30.15,NNE,22,0.0,3.0,88,0.00,,,0.00,weatherlink.com 1.10,2013-04-09 13:52:00,
2013-04-09 07:07:00,43.8,40.0,30.16,NNE,28,0.0,2.0,87,0.00,,,0.00,weatherlink.com 1.10,2013-04-09 14:07:00,
2013-04-09 07:22:00,43.5,40.0,30.16,NNE,32,0.0,1.0,88,0.00,,,0.00,weatherlink.com 1.10,2013-04-09 14:22:00,
2013-04-09 07:37:00,43.8,40.0,30.16,NNE,28,0.0,1.0,87,0.00,,,0.00,weatherlink.com 1.10,2013-04-09 14:37:00,
2013-04-09 07:52:00,44.4,41.0,30.17,NNE,28,0.0,0.0,86,0.00,,,0.00,weatherlink.com 1.10,2013-04-09 14:52:00,
2013-04-09 08:07:00,45.3,41.0,30.17,NE,34,0.0,0.0,84,0.00,,,0.00,weatherlink.com 1.10,2013-04-09 15:07:00,
2013-04-09 08:22:00,47.0,42.0,30.18,NNE,30,0.0,1.0,82,0.00,,,0.00,weatherlink.com 1.10,2013-04-09 15:22:00,
2013-04-09 08:37:00,48.7,43.0,30.18,NNE,30,0.0,1.0,80,0.00,,,0.00,weatherlink.com 1.10,2013-04-09 15:37:00,
2013-04-09 08:52:00,51.3,44.0,30.18,NNE,19,0.0,1.0,76,0.00,,,0.00,weatherlink.com 1.10,2013-04-09 15:52:00,
2013-04-09 09:07:00,53.2,45.0,30.17,NNW,348,0.0,1.0,75,0.00,,,0.00,weatherlink.com 1.10,2013-04-09 16:07:00,
2013-04-09 09:22:00,53.0,44.0,30.16,NNE,28,1.0,2.0,71,0.00,,,0.00,weatherlink.com 1.10,2013-04-09 16:22:00,
2013-04-09 09:37:00,55.4,46.0,30.17,NE,35,0.0,2.0,71,0.00,,,0.00,weatherlink.com 1.10,2013-04-09 16:37:00,
2013-04-09 09:52:00,57.7,44.0,30.17,ESE,110,1.0,2.0,60,0.00,,,0.00,weatherlink.com 1.10,2013-04-09 16:52:00,
2013-04-09 10:07:00,59.4,46.0,30.17,NE,53,1.0,3.0,61,0.00,,,0.00,weatherlink.com 1.10,2013-04-09 17:07:00,
2013-04-09 10:23:00,60.6,47.0,30.17,SSW,208,2.0,5.0,62,0.00,,,0.00,weatherlink.com 1.10,2013-04-09 17:23:00,
2013-04-09 10:38:00,60.8,48.0,30.17,SSW,205,1.0,5.0,62,0.00,,,0.00,weatherlink.com 1.10,2013-04-09 17:38:00,
2013-04-09 10:53:00,57.5,48.0,30.17,SW,215,1.0,8.0,70,0.00,,,0.00,weatherlink.com 1.10,2013-04-09 17:53:00,
2013-04-09 11:08:00,57.1,49.0,30.18,SW,225,3.0,7.0,73,0.00,,,0.00,weatherlink.com 1.10,2013-04-09 18:08:00,
2013-04-09 11:23:00,58.2,49.0,30.17,SE,125,6.0,7.0,71,0.00,,,0.00,weatherlink.com 1.10,2013-04-09 18:23:00,
2013-04-09 11:38:00,58.1,49.0,30.17,SW,223,4.0,7.0,72,0.00,,,0.00,weatherlink.com 1.10,2013-04-09 18:38:00,
2013-04-09 11:53:00,58.0,49.0,30.17,South,186,5.0,8.0,71,0.00,,,0.00,weatherlink.com 1.10,2013-04-09 18:53:00,
2013-04-09 12:08:00,57.4,49.0,30.16,South,174,2.0,7.0,73,0.00,,,0.00,weatherlink.com 1.10,2013-04-09 19:08:00,
2013-04-09 12:23:00,58.7,51.0,30.16,SW,220,5.0,8.0,75,0.00,,,0.00,weatherlink.com 1.10,2013-04-09 19:23:00,
2013-04-09 12:38:00,59.8,51.0,30.16,SSW,193,4.0,7.0,73,0.00,,,0.00,weatherlink.com 1.10,2013-04-09 19:38:00,
2013-04-09 12:53:00,62.3,53.0,30.14,SSW,209,5.0,8.0,72,0.00,,,0.00,weatherlink.com 1.10,2013-04-09 19:53:00,
2013-04-09 13:08:00,63.4,52.0,30.14,SSW,202,3.0,8.0,67,0.00,,,0.00,weatherlink.com 1.10,2013-04-09 20:08:00,
2013-04-09 13:23:00,63.4,51.0,30.14,South,172,6.0,8.0,65,0.00,,,0.00,weatherlink.com 1.10,2013-04-09 20:23:00,
2013-04-09 13:38:00,62.6,51.0,30.14,South,184,6.0,10.0,67,0.00,,,0.00,weatherlink.com 1.10,2013-04-09 20:38:00,
2013-04-09 13:53:00,61.7,51.0,30.14,South,171,7.0,9.0,68,0.00,,,0.00,weatherlink.com 1.10,2013-04-09 20:53:00,
2013-04-09 14:08:00,61.4,51.0,30.13,SW,215,5.0,9.0,68,0.00,,,0.00,weatherlink.com 1.10,2013-04-09 21:08:00,
2013-04-09 14:23:00,61.6,51.0,30.13,SSE,161,3.0,8.0,69,0.00,,,0.00,weatherlink.com 1.10,2013-04-09 21:23:00,
2013-04-09 14:38:00,58.9,50.0,30.13,SW,225,5.0,7.0,73,0.00,,,0.00,weatherlink.com 1.10,2013-04-09 21:38:00,
2013-04-09 14:53:00,60.4,51.0,30.12,South,182,4.0,8.0,72,0.00,,,0.00,weatherlink.com 1.10,2013-04-09 21:53:00,
2013-04-09 15:08:00,61.8,52.0,30.12,South,190,4.0,5.0,71,0.00,,,0.00,weatherlink.com 1.10,2013-04-09 22:08:00,
2013-04-09 15:23:00,62.8,52.0,30.12,SSW,210,5.0,6.0,69,0.00,,,0.00,weatherlink.com 1.10,2013-04-09 22:23:00,
2013-04-09 15:38:00,64.2,52.0,30.11,SSW,195,3.0,6.0,64,0.00,,,0.00,weatherlink.com 1.10,2013-04-09 22:38:00,
2013-04-09 15:53:00,64.9,51.0,30.12,SSW,208,4.0,5.0,60,0.00,,,0.00,weatherlink.com 1.10,2013-04-09 22:53:00,
2013-04-09 16:08:00,63.1,50.0,30.11,SSE,147,4.0,6.0,62,0.00,,,0.00,weatherlink.com 1.10,2013-04-09 23:08:00,
2013-04-09 16:23:00,63.6,50.0,30.11,SSW,194,5.0,7.0,62,0.00,,,0.00,weatherlink.com 1.10,2013-04-09 23:23:00,
2013-04-09 16:38:00,63.3,51.0,30.11,SSW,211,5.0,7.0,64,0.00,,,0.00,weatherlink.com 1.10,2013-04-09 23:38:00,
2013-04-09 16:53:00,64.0,51.0,30.11,SSW,208,3.0,6.0,62,0.00,,,0.00,weatherlink.com 1.10,2013-04-09 23:53:00,
2013-04-09 17:08:00,62.6,50.0,30.11,SSW,205,3.0,5.0,64,0.00,,,0.00,weatherlink.com 1.10,2013-04-10 00:08:00,
2013-04-09 17:23:00,63.3,50.0,30.11,SSW,192,1.0,7.0,62,0.00,,,0.00,weatherlink.com 1.10,2013-04-10 00:23:00,
2013-04-09 17:38:00,63.0,50.0,30.11,WSW,240,3.0,5.0,63,0.00,,,0.00,weatherlink.com 1.10,2013-04-10 00:38:00,
2013-04-09 17:53:00,64.3,50.0,30.11,SSW,200,2.0,4.0,61,0.00,,,0.00,weatherlink.com 1.10,2013-04-10 00:53:00,
2013-04-09 18:08:00,64.1,51.0,30.12,SSW,205,2.0,4.0,62,0.00,,,0.00,weatherlink.com 1.10,2013-04-10 01:08:00,
2013-04-09 18:23:00,62.8,50.0,30.12,SSW,196,0.0,2.0,64,0.00,,,0.00,weatherlink.com 1.10,2013-04-10 01:23:00,
2013-04-09 18:38:00,62.4,49.0,30.11,SSW,211,0.0,2.0,63,0.00,,,0.00,weatherlink.com 1.10,2013-04-10 01:38:00,
2013-04-09 18:53:00,59.8,48.0,30.12,South,179,0.0,2.0,66,0.00,,,0.00,weatherlink.com 1.10,2013-04-10 01:53:00,
2013-04-09 19:08:00,60.2,48.0,30.12,SSW,212,0.0,2.0,64,0.00,,,0.00,weatherlink.com 1.10,2013-04-10 02:08:00,
2013-04-09 19:23:00,58.2,49.0,30.12,NNE,15,0.0,1.0,71,0.00,,,0.00,weatherlink.com 1.10,2013-04-10 02:23:00,
2013-04-09 19:38:00,56.9,49.0,30.12,West,265,0.0,0.0,74,0.00,,,0.00,weatherlink.com 1.10,2013-04-10 02:38:00,
2013-04-09 19:53:00,55.1,48.0,30.12,NNE,28,0.0,1.0,76,0.00,,,0.00,weatherlink.com 1.10,2013-04-10 02:53:00,
2013-04-09 20:08:00,53.8,46.0,30.13,NNE,24,1.0,3.0,76,0.00,,,0.00,weatherlink.com 1.10,2013-04-10 03:08:00,
2013-04-09 20:23:00,53.2,46.0,30.13,NNE,26,0.0,4.0,77,0.00,,,0.00,weatherlink.com 1.10,2013-04-10 03:23:00,
2013-04-09 20:38:00,52.7,46.0,30.14,NNE,25,1.0,3.0,78,0.00,,,0.00,weatherlink.com 1.10,2013-04-10 03:38:00,
2013-04-09 20:53:00,52.3,46.0,30.14,NE,34,0.0,3.0,78,0.00,,,0.00,weatherlink.com 1.10,2013-04-10 03:53:00,
2013-04-09 21:08:00,51.8,46.0,30.15,NNE,32,0.0,1.0,79,0.00,,,0.00,weatherlink.com 1.10,2013-04-10 04:08:00,
2013-04-09 21:23:00,52.5,45.0,30.15,NNE,13,0.0,3.0,76,0.00,,,0.00,weatherlink.com 1.10,2013-04-10 04:23:00,
2013-04-09 21:38:00,53.2,45.0,30.15,NNE,19,0.0,2.0,74,0.00,,,0.00,weatherlink.com 1.10,2013-04-10 04:38:00,
2013-04-09 21:53:00,53.0,45.0,30.15,NNE,23,1.0,3.0,75,0.00,,,0.00,weatherlink.com 1.10,2013-04-10 04:53:00,
2013-04-09 22:08:00,53.8,45.0,30.16,NNE,17,0.0,2.0,72,0.00,,,0.00,weatherlink.com 1.10,2013-04-10 05:08:00,
2013-04-09 22:23:00,54.6,46.0,30.16,NNE,30,0.0,3.0,72,0.00,,,0.00,weatherlink.com 1.10,2013-04-10 05:23:00,
2013-04-09 22:38:00,52.8,45.0,30.16,NNE,25,1.0,5.0,74,0.00,,,0.00,weatherlink.com 1.10,2013-04-10 05:38:00,
2013-04-09 22:53:00,52.5,45.0,30.16,NNE,19,2.0,4.0,75,0.00,,,0.00,weatherlink.com 1.10,2013-04-10 05:53:00,
2013-04-09 23:08:00,51.3,45.0,30.16,NE,36,0.0,4.0,78,0.00,,,0.00,weatherlink.com 1.10,2013-04-10 06:08:00,
2013-04-09 23:23:00,50.6,45.0,30.16,NNE,30,0.0,4.0,80,0.00,,,0.00,weatherlink.com 1.10,2013-04-10 06:23:00,
2013-04-09 23:38:00,51.3,45.0,30.16,NNE,23,0.0,3.0,79,0.00,,,0.00,weatherlink.com 1.10,2013-04-10 06:38:00,
2013-04-09 23:53:00,52.2,45.0,30.15,NNE,22,2.0,3.0,77,0.00,,,0.00,weatherlink.com 1.10,2013-04-10 06:53:00,